Location: Unnamed
(48.6007°N, 2.4808°E)
Time: 07:09:32
(UTC+02:00)

VELOX 1 - Pass Details

Date: 25 March 2023
Orbit: 617 x 630 km, 98.4° (Epoch: 29 May)

Event Time Altitude Azimuth Distance (km) Brightness Sun altitude
Rises 19:02:17 0° 18° (NNE) 2,910 ? 0.4°
Reaches altitude 10° 19:04:32 10° 23° (NNE) 1,997 ? 0.0°
Maximum altitude 19:08:46 52° 101° (E) 774 ? -0.7°
Drops below altitude 10° 19:12:58 10° 178° (S) 1,977 ? -1.3°
Sets 20:50:21 0° 236° (SW) 2,884 ? -16.9°
